{"data":{"norad_id":87565,"epoch":"2026-05-20T11:22:35.891328Z","epoch_age_seconds":459875,"freshness":"STALE","line1":"1 87565U          26140.47402652  .00000762  00000+0  42994-3 0  9999","line2":"2 87565  99.9488 152.7380 0172829 101.0491 261.0165 14.06407497638742","mean_motion":14.06407497,"eccentricity":0.0172829,"inclination_deg":99.9488,"raan_deg":152.738,"arg_perigee_deg":101.0491,"mean_anomaly_deg":261.0165,"bstar":0.00042994,"rev_number":63874,"period_min":102.38853270277,"perigee_km":746.39332406439,"apogee_km":996.98944198637,"semimajor_km":7249.8283830254,"source":"CELESTRAK","updated_at":"2026-05-25T13:38:11.673351Z"}}